Regional Weather Roundup
Issued by NWS Charleston, SC

Current Version | Previous Version | Text Only | Print | Product List | Glossary On
Versions: 1 2 3 4 5 6 7 8 9 10 11 12 13 14 15 16 17 18 19 20 21 22 23 24 25 26 27 28 29 30 31 32 33 34 35 36 37 38 39 40 41 42 43 44 45 46 47 48 49 50
000
ASUS42 KCHS 281825
RWRCHS

REGIONAL WEATHER ROUNDUP
NATIONAL WEATHER SERVICE CHARLESTON SC
200 PM EDT MON JUL 28 2014

NOTE: "FAIR" INDICATES FEW OR NO CLOUDS BELOW 12,000 FEET WITH NO
SIGNIFICANT WEATHER AND/OR OBSTRUCTIONS TO VISIBILITY.

NOT ALL STATIONS ARE QUALITY CONTROLLED BY THE NATIONAL
WEATHER SERVICE. USE DATA WITH CAUTION...ESPECIALLY
DEWPOINT OBSERVATIONS.

SCZ027-030-031-034>040-042>050-281900-
...SOUTH CAROLINA...

CITY           SKY/WX    TMP DP  RH WIND       PRES   REMARKS
N CHARLESTON   PTSUNNY   95  77  55 W10       29.85F HX 109
6HR MIN TEMP:  83; 6HR MAX TEMP:  95;

WATERFRONT PRK   N/A     91 N/A N/A SW9G15      N/A
FORT JOHNSON   NOT AVBL
MOUNT PLEASANT FAIR      93  79  62 W9G16     29.84F HAZE    HX 110
JOHNS ISLAND   PTCLDY    97  73  46 W8G17     29.85F HX 107
PINOPOLIS        N/A     90  77  66 W15       29.77F HX 102
MONCKS CORNER    N/A     93  81  66 SW13      29.84F HX 113
SUMMERVILLE    FAIR      91  77  62 W10G17    29.85F HX 105
BEAUFORT MCAS  PTSUNNY   94  74  52 NW14G21   29.86F HX 104
6HR MIN TEMP:  82; 6HR MAX TEMP:  95;

BEAUFORT ARPT  FAIR      95  75  52 W22       29.86F HX 107
HILTON HEAD IS MOSUNNY   95  75  52 SW14G23   29.89S HX 107
GEORGETOWN     NOT AVBL
WALTERBORO     PTCLDY    93  72  49 W12G21    29.86F HX 100
ORANGEBURG     MOSUNNY   93  72  50 W17G25    29.84F HX 101
6HR MIN TEMP:  80; 6HR MAX TEMP:  93;

BARNWELL       MOCLDY    93  75  55 SW16G22   29.85F HX 104
AIKEN          FAIR      93  72  49 W17G24    29.88F HX 100
MANNING        FAIR      93  77  59 SW10G16   29.81F HX 107
KINGSTREE      NOT AVBL
COLUMBIA       PTSUNNY   97  70  41 W15       29.81F HX 103
6HR MIN TEMP:  84; 6HR MAX TEMP:  97;

SUMTER         MOSUNNY   93  74  52 W13       29.80F HX 103
6HR MIN TEMP:  80; 6HR MAX TEMP:  94;

FLORENCE       SUNNY     91  73  55 W12       29.80F HX  99
6HR MIN TEMP:  81; 6HR MAX TEMP:  92;

MYRTLE BEACH   MOSUNNY   93  75  55 W13       29.82F HX 104
N MYRTLE BEACH PTSUNNY   90  77  65 SW12      29.80F HX 103
6HR MIN TEMP:  82; 6HR MAX TEMP:  92;


$$

GAZ063-065-086>088-099>101-113>116-118-119-134-136>141-150-281900-
...GEORGIA...

CITY           SKY/WX    TMP DP  RH WIND       PRES   REMARKS
SAVANNAH ARPT  PTSUNNY   97  70  41 W21G26    29.88F HX 103
6HR MIN TEMP:  81; 6HR MAX TEMP:  97;

HUNTER AAF     SUNNY     96  74  48 W16G28    29.86F HX 107
6HR MIN TEMP:  80; 6HR MAX TEMP:  96;

FORT STEWART   MOSUNNY   97  71  42 SW18G26   29.88F HX 105
6HR MIN TEMP:  80; 6HR MAX TEMP:  98;

STATESBORO     NOT AVBL
SYLVANIA       PTCLDY    94  81  65 W10       29.88F HX 114
CLAXTON        FAIR      95  77  55 W10G17    29.89F HX 109
THOMSON        MOSUNNY   94  77  56 W12G18    29.91F HX 108
AUGUSTA-BUSH   MOSUNNY   93  74  53 W15G24    29.85F HX 103
6HR MIN TEMP:  81; 6HR MAX TEMP:  94;

AUGUSTA-DANIEL PTSUNNY   94  73  50 W8G17     29.87F HX 103
SWAINSBORO     FAIR      95  79  59 W14G22    29.89F HX 112
VIDALIA          N/A     93  75  55 W8        29.91F HX 104
ALMA           NOT AVBL
WAYCROSS       MOSUNNY  100  76  46 W15       29.92F HX 114
JESUP          NOT AVBL
BRUNSWICK      MOSUNNY   95  72  46 W13G22    29.91F HX 103
SAINT SIMONS   MOSUNNY   95  75  52 SW13G23   29.91F HX 107
6HR MIN TEMP:  80; 6HR MAX TEMP:  95;


$$

SCZ027-028-034-036>038-045-046-048>050-GAZ119-141-281900-
...LAKE AND SUPPLEMENTAL COASTAL OBSERVATIONS...

STATION/POSITION TIME  TEMP    WIND        PRES    WAVE   SWELL
                       AIR SEA DIR/SP/G            HT/PER HT/PER/DIR
                 (UTC) (F)     (DEG/KT/KT) (MB)    (FT/S) (FT/S/D)
UPR LAKE MARION  NOT AVBL
WINYAH BAY       1700   88     240/  9     1010.0S
LAKE MURRAY      1700   91     280/ 15/ 21 1008.8F
ACE BASIN NERRS  1700   91     250/  4     1012.0S
FORT PULASKI     1800   93     270/ 15/ 19 1011.8F
SAPELO ISLAND    1800   93     260/ 16     1014.0S

$$

ANZ835-935-AMZ111-154-330-350-352-354-374-450-454-472-281900-
...C-MAN AND BUOY OBSERVATIONS...

STATION/POSITION TIME  TEMP    WIND        PRES    WAVE   SWELL
                       AIR SEA DIR/SP/G            HT/PER HT/PER/DIR
                 (UTC) (F)     (DEG/KT/KT) (MB)    (FT/S) (FT/S/D)
FOLLY BEACH CMAN 1800   89     230/ 10/ 13 1011.2F
BUOY 41004       1800   84 83  220/ 17/ 21 1010.3F   4/ 6   2/ 9
BUOY 41008       1800   86 85  220/ 12/ 14 1012.8F   2/ 9   2/130/ 9
5E ST. MARYS GA  1800      85                N/A     1/11
FRYING PAN BUOY  NOT AVBL
BUOY 41025       1800          VRB 17/ 19  1008.4F   5/ 6   2/130/ 9
CAPE LOOKOUT NC  1800   82     220/ 10/ 13 1009.1F
BUOY 41002       1702   82 81  240/ 17/ 19 1014.3F   6/ 7   2/170/ 8
BUOY 41010       1800   84 85  250/ 14/ 16 1016.6F   4/ 5   2/120/ 9
BUOY 41012       NOT AVBL
ST AUGUSTINE FL  1800   91     240/  9/ 11 1015.5F
CAPERS NEARSHORE 1700   86     220/ 17/ 19   N/A
FRIPP NEARSHORE  NOT AVBL


$$



USA.gov is the U.S. government's official web portal to all federal, state and local government web resources and services.